{"data":{"norad_id":63739,"intl_designator":"2025-088R","name":"KUIPER-00025","alt_names":[],"object_type":"PAYLOAD","status":"ACTIVE","operator":null,"country":"US","launch_date":"2025-04-28","launch_site_code":"AFETR","launch_vehicle":null,"mission":null,"orbit_class":"UNKNOWN","rcs_meters":null,"size_class":null,"mass_kg":null,"dimensions":null,"purposes":[],"wikipedia_slug":null,"has_3d_model":false,"image_url":null,"decayed_at":null,"tle_current":{"epoch":"2026-05-25T04:48:08.711712Z","epoch_age_seconds":61355,"freshness":"FRESH","line1":"1 63739U 25088R   26145.20010083  .00000748  00000+0  12714-3 0  9999","line2":"2 63739  51.9028 122.2854 0000680  57.3263 302.7764 14.79923570 59144","mean_motion":14.7992357,"eccentricity":6.8e-5,"inclination_deg":51.9028,"raan_deg":122.2854,"arg_perigee_deg":57.3263,"mean_anomaly_deg":302.7764,"bstar":0.00012714,"rev_number":5914,"period_min":97.3023221733,"perigee_km":629.08887374327,"apogee_km":630.04192126933,"semimajor_km":7007.7023975063,"source":"CELESTRAK","updated_at":"2026-05-25T13:38:03.928525Z"}}}